Wind_Speed
40 42 43 43 44 46 48 49 49 49 49 51 53 54 53 54 54 53 52 51 51 50 49 50 50 49 48 47 46 45 45 44 42 41 40 39 38 37 36 36 35 35 34 33
39 40 39 41 42 43 44 47 47 47 47 48 50 51 51 53 53 52 52 52 51 51 50 49 50 50 49 48 47 46 45 44 43 42 41 40 40 39 38 37 37 36 35 35
36 36 37 38 38 39 40 42 43 44 44 46 48 49 48 50 51 51 52 53 52 51 50 49 50 50 49 48 47 47 46 45 44 44 43 42 41 40 39 38 38 37 37 36
32 32 33 34 34 36 37 38 40 41 42 44 46 49 48 48 49 49 50 51 52 51 50 50 50 50 50 49 48 47 46 46 45 45 43 42 42 41 41 40 39 39 38 38
30 29 30 31 31 32 33 34 36 37 40 42 44 47 47 47 48 47 47 49 50 50 50 50 50 50 50 50 49 48 47 47 46 45 44 43 42 42 42 42 41 40 40 39
28 28 28 28 29 29 30 32 33 34 36 39 41 43 46 46 46 46 47 47 48 49 49 50 50 51 50 51 50 50 48 48 47 46 45 44 44 43 43 42 42 41 41 41
26 25 26 26 27 28 29 29 30 32 33 36 37 40 43 43 44 44 45 46 47 48 49 49 49 50 51 51 50 50 49 48 48 46 45 45 45 44 44 43 43 43 42 41
24 23 23 23 24 25 27 27 28 31 33 33 35 38 39 40 42 43 44 46 47 48 49 49 48 48 50 51 51 49 49 49 48 47 46 45 45 45 44 44 43 43 43 42
21 21 22 22 23 24 24 26 27 29 31 33 35 37 37 39 40 42 42 43 46 47 47 48 47 47 48 49 49 49 49 49 48 48 47 46 45 45 45 44 44 43 43 44
20 21 20 21 22 22 24 24 24 26 28 30 33 35 37 38 39 40 41 42 45 46 46 47 47 47 47 47 47 48 49 48 48 47 47 46 46 46 46 45 45 44 44 44
20 20 19 19 20 21 21 24 24 25 27 28 31 33 35 36 37 38 39 40 43 44 45 46 47 47 47 47 47 48 48 48 48 47 46 45 46 46 45 45 45 45 44 44
19 18 18 18 19 20 20 21 22 24 25 27 29 32 33 34 36 38 38 38 39 42 43 45 46 46 47 47 48 48 49 48 48 47 46 46 46 46 46 46 46 45 45 44
18 17 17 17 19 20 21 21 22 23 24 25 27 30 33 34 35 36 37 37 38 40 42 43 44 46 47 47 47 48 49 49 48 48 46 46 46 46 46 46 46 46 45 46
17 17 17 16 17 19 20 22 23 24 26 25 25 28 31 33 34 35 36 37 38 39 40 42 43 44 46 46 47 48 48 48 48 48 47 46 46 46 46 46 46 46 46 46
17 17 17 16 17 18 20 21 23 24 26 26 25 26 28 32 34 35 35 36 37 39 40 41 42 43 44 45 46 47 48 48 48 48 47 47 47 47 47 46 46 46 46 46
17 17 17 17 18 19 19 20 20 23 25 26 25 25 27 29 31 33 34 36 37 38 38 39 40 42 43 44 45 46 47 47 48 48 48 48 48 48 47 47 46 46 47 46
15 16 17 18 20 20 20 20 20 20 23 25 25 24 25 27 28 31 33 34 36 38 38 37 38 40 42 43 44 45 46 47 47 47 47 48 48 49 48 48 47 47 46 46
16 15 16 16 18 19 18 21 22 21 22 24 24 26 26 26 28 29 31 33 34 36 38 38 39 39 40 42 43 44 45 45 47 48 48 48 48 48 49 49 48 48 49 47
15 15 15 16 16 17 18 19 20 22 23 24 24 25 25 26 28 29 31 32 33 34 36 38 38 39 39 40 42 43 44 45 45 46 47 47 47 48 48 48 48 48 49 49
14 15 16 16 16 16 16 17 18 19 21 23 24 24 25 26 27 29 31 31 32 33 34 36 38 39 39 39 40 41 42 43 43 44 45 45 46 47 47 47 48 48 48 48
15 15 15 16 16 15 15 16 16 17 19 21 23 24 26 26 26 27 29 30 30 32 33 35 37 38 39 39 40 40 40 41 42 42 42 43 44 45 46 47 47 48 48 48
16 15 15 15 15 15 15 15 16 17 17 19 21 22 24 25 26 27 27 29 30 31 32 34 34 35 37 39 40 40 40 41 41 41 42 42 42 42 44 45 45 46 47 47
16 16 15 15 15 15 15 16 17 18 18 19 19 20 21 23 25 26 27 28 29 30 31 31 32 33 35 36 38 39 40 40 40 40 41 42 42 41 41 41 42 43 44 45
16 16 16 15 15 15 16 16 18 19 20 20 20 20 21 22 24 26 28 28 29 30 30 31 31 32 33 35 36 38 39 40 40 40 40 40 40 40 40 40 40 41 42 43
17 17 17 16 15 15 16 17 18 19 20 21 21 20 21 22 23 24 26 28 29 30 30 30 30 31 31 33 34 35 37 39 39 39 39 39 40 40 39 39 39 39 40 41
18 18 18 18 17 17 17 18 18 20 20 21 21 21 21 22 23 24 25 25 27 28 30 30 31 30 30 31 32 33 35 36 38 38 38 38 38 39 39 39 39 39 39 40
Wind_Direction
266 265 262 261 260 260 258 255 253 250 247 245 243 242 239 236 234 233 233 232 232 233 233 233 233 233 233 232 233 233 233 234 235 235 236 237 238 238 239 239 240 241 241 241
267 265 265 262 260 258 257 254 251 249 246 244 241 240 237 233 233 232 232 232 232 232 231 232 233 233 232 232 232 232 233 234 235 235 236 237 237 238 239 239 240 241 241 242
271 268 265 263 258 256 256 253 249 247 244 242 240 238 234 232 232 231 230 231 231 231 231 231 232 232 231 231 231 231 232 234 234 235 236 236 237 238 239 240 241 241 242 244
273 269 264 262 259 258 256 252 247 245 243 241 240 239 235 231 230 230 230 230 230 230 230 231 231 231 230 229 229 230 231 233 234 234 235 236 237 238 239 240 241 242 243 245
273 269 263 260 259 259 256 250 245 244 243 241 238 239 235 231 230 229 229 229 229 229 230 231 230 231 230 229 228 229 230 232 233 234 235 235 237 238 240 241 242 243 244 245
272 268 263 260 257 256 253 247 246 244 241 239 236 237 234 231 230 229 227 228 228 229 229 230 230 230 230 229 229 229 231 232 233 234 235 236 238 239 240 242 243 244 245 246
271 267 262 258 254 252 249 245 244 242 241 241 236 236 234 231 229 228 228 227 228 228 228 229 229 229 229 229 230 230 231 232 233 234 235 237 238 239 241 242 243 243 245 247
275 268 263 259 256 251 246 246 245 243 243 241 238 237 233 231 229 227 227 227 228 228 228 229 229 229 229 229 229 230 231 232 233 235 236 237 238 239 240 241 243 244 244 246
278 267 260 258 255 247 243 243 245 245 246 244 240 237 232 229 228 227 226 227 228 228 229 228 228 229 228 229 230 230 231 232 234 235 236 237 238 239 240 242 243 244 244 245
280 270 260 255 250 244 242 241 241 241 243 244 240 236 231 228 228 227 226 226 227 228 228 227 228 229 228 229 229 230 232 233 234 235 236 237 238 239 241 242 243 243 244 245
282 273 264 254 248 245 242 239 239 242 241 242 240 234 232 231 230 229 227 225 226 227 227 228 229 229 228 229 230 231 232 233 234 235 236 237 238 239 241 242 244 244 244 246
283 274 265 257 248 245 243 241 240 239 235 237 241 238 234 234 232 232 230 227 225 225 226 227 228 230 229 229 230 231 232 232 234 235 236 237 239 240 241 242 244 245 245 245
283 275 268 258 249 244 242 240 239 236 235 237 240 239 235 234 234 234 232 230 227 225 225 225 227 229 229 230 231 232 232 233 234 235 235 236 238 239 240 242 243 245 246 246
284 274 269 263 255 247 242 241 239 237 237 239 241 241 238 235 235 236 233 231 230 228 227 227 228 229 230 231 232 233 233 234 235 235 235 236 238 239 240 241 243 244 246 246
285 275 268 264 258 252 245 241 240 238 239 241 242 241 239 235 233 235 234 233 233 232 231 230 231 231 231 232 233 234 235 235 236 237 237 238 238 239 241 242 242 244 245 247
289 278 268 262 257 255 249 243 242 241 240 239 241 241 237 234 233 234 235 235 234 233 233 233 233 233 233 234 235 236 237 237 238 239 239 239 239 240 241 241 242 244 245 247
298 286 274 266 259 253 249 246 245 244 240 239 240 240 236 234 233 233 233 235 236 235 234 235 235 235 235 236 236 237 238 239 240 240 241 241 241 241 242 242 243 243 246 247
305 292 280 273 263 258 254 251 248 246 241 239 239 239 236 235 235 235 235 234 235 235 235 235 235 235 236 237 237 238 239 240 241 242 242 242 242 242 243 243 243 245 246 248
309 297 287 279 270 261 255 254 252 248 241 239 238 238 237 238 237 237 236 236 236 235 235 235 235 237 238 238 239 239 240 241 242 243 243 243 243 243 244 244 245 246 248 248
308 299 291 283 276 267 258 254 253 250 245 241 240 241 242 241 239 236 234 236 237 236 236 236 237 238 239 239 239 239 240 241 242 243 243 244 245 245 246 246 247 248 248 248
309 304 294 287 280 271 262 256 255 254 248 243 243 243 243 241 240 237 236 236 236 237 237 238 239 239 240 240 240 240 241 241 242 242 243 244 246 246 247 247 247 247 248 248
307 307 302 293 284 275 267 260 256 255 249 247 246 244 242 240 240 240 239 237 237 238 239 240 240 240 241 241 242 242 243 242 242 242 243 244 245 247 247 247 248 248 248 249
304 305 304 296 287 278 270 264 260 257 254 251 250 247 244 242 241 241 239 239 238 239 241 241 242 242 242 243 243 242 242 242 243 244 245 245 246 246 247 247 247 248 248 249
302 303 304 298 288 279 273 268 263 258 256 252 253 250 248 245 243 243 242 241 241 240 241 243 244 244 244 245 244 243 243 243 243 245 246 246 245 246 246 247 247 248 248 248
300 299 300 298 290 282 275 271 266 262 259 256 255 253 251 248 245 244 244 243 241 241 242 245 246 247 247 246 245 244 244 243 243 244 245 245 245 245 246 247 248 248 248 249
298 297 297 297 292 287 279 272 269 265 261 257 255 254 254 250 247 245 245 245 246 245 246 247 248 248 249 248 247 245 245 244 243 243 244 245 245 245 246 247 248 249 249 249
Height
5601 5601 5601 5603 5604 5605 5606 5608 5610 5614 5617 5620 5624 5630 5638 5645 5651 5658 5666 5673 5680 5686 5693 5698 5703 5709 5715 5721 5727 5733 5739 5744 5748 5753 5757 5761 5765 5768 5772 5775 5779 5782 5785 5789
5589 5589 5591 5590 5591 5591 5592 5593 5597 5601 5604 5607 5611 5617 5624 5631 5638 5647 5654 5661 5668 5675 5681 5687 5692 5698 5705 5711 5717 5723 5729 5735 5740 5745 5749 5753 5757 5760 5764 5768 5771 5774 5778 5781
5577 5579 5578 5578 5578 5579 5580 5582 5585 5588 5591 5594 5599 5605 5612 5619 5626 5634 5642 5649 5656 5663 5670 5676 5682 5688 5694 5701 5707 5714 5720 5725 5731 5735 5739 5744 5748 5752 5756 5760 5763 5767 5770 5773
5567 5567 5567 5567 5568 5569 5570 5572 5574 5576 5580 5584 5589 5593 5602 5609 5616 5623 5631 5638 5645 5652 5659 5665 5671 5677 5684 5691 5697 5704 5710 5716 5721 5726 5730 5735 5739 5744 5748 5752 5755 5759 5762 5765
5558 5558 5558 5558 5560 5560 5561 5563 5566 5568 5570 5574 5579 5583 5592 5599 5606 5614 5621 5628 5635 5642 5648 5655 5661 5668 5674 5681 5687 5694 5700 5706 5711 5716 5721 5726 5731 5735 5739 5743 5746 5750 5753 5756
5550 5549 5549 5551 5552 5552 5553 5556 5558 5559 5561 5564 5571 5574 5581 5589 5597 5604 5611 5618 5624 5631 5638 5644 5651 5657 5664 5671 5677 5684 5690 5696 5701 5707 5712 5717 5721 5725 5729 5733 5737 5741 5744 5747
5544 5543 5543 5544 5545 5546 5547 5549 5550 5551 5552 5557 5564 5566 5573 5581 5589 5596 5602 5609 5615 5621 5628 5634 5641 5647 5654 5661 5668 5674 5680 5686 5692 5697 5702 5707 5712 5716 5720 5724 5727 5731 5735 5737
5536 5536 5536 5536 5537 5539 5541 5542 5545 5545 5547 5552 5556 5559 5568 5574 5580 5587 5593 5599 5606 5612 5619 5625 5632 5638 5645 5652 5658 5665 5671 5677 5682 5688 5693 5697 5702 5706 5710 5714 5718 5722 5725 5728
5530 5530 5530 5531 5532 5533 5534 5536 5539 5541 5542 5545 5548 5554 5561 5567 5573 5579 5585 5591 5597 5604 5610 5616 5623 5629 5636 5642 5649 5655 5661 5667 5673 5678 5683 5687 5692 5696 5700 5704 5708 5712 5715 5718
5524 5525 5525 5526 5527 5528 5529 5531 5533 5535 5536 5538 5542 5547 5554 5560 5566 5571 5577 5583 5589 5595 5601 5608 5614 5620 5627 5633 5639 5646 5651 5657 5663 5668 5673 5678 5682 5686 5691 5694 5698 5701 5704 5708
5521 5520 5520 5521 5521 5523 5525 5527 5528 5530 5532 5534 5537 5544 5548 5553 5559 5564 5570 5576 5581 5587 5593 5599 5605 5611 5618 5624 5630 5636 5642 5647 5653 5658 5663 5668 5672 5676 5680 5684 5688 5691 5694 5697
5517 5516 5516 5516 5517 5518 5520 5522 5524 5526 5527 5529 5533 5540 5542 5548 5552 5557 5563 5568 5573 5579 5585 5591 5597 5602 5609 5615 5620 5626 5632 5638 5643 5648 5653 5657 5662 5666 5670 5674 5677 5680 5684 5687
5512 5512 5512 5513 5516 5516 5516 5517 5519 5521 5523 5525 5528 5535 5537 5542 5546 5550 5555 5561 5566 5571 5577 5582 5588 5593 5600 5606 5611 5617 5622 5628 5633 5638 5643 5647 5652 5656 5660 5663 5667 5670 5674 5677
5508 5508 5509 5509 5508 5510 5511 5513 5514 5517 5518 5520 5524 5528 5532 5536 5540 5544 5548 5553 5558 5564 5569 5574 5579 5585 5591 5596 5602 5607 5612 5617 5623 5628 5633 5637 5641 5645 5649 5653 5657 5660 5663 5667
5505 5505 5504 5504 5504 5505 5506 5508 5510 5512 5513 5516 5519 5522 5526 5529 5533 5537 5542 5546 5551 5556 5561 5566 5571 5576 5582 5587 5592 5597 5602 5607 5613 5618 5622 5627 5631 5635 5639 5642 5646 5649 5653 5656
5501 5501 5501 5501 5501 5501 5502 5504 5505 5507 5509 5511 5514 5517 5520 5523 5527 5531 5535 5539 5544 5548 5553 5558 5563 5568 5573 5577 5582 5587 5592 5597 5602 5607 5611 5616 5620 5624 5628 5632 5635 5639 5642 5646
5498 5497 5496 5497 5496 5497 5498 5500 5501 5502 5504 5507 5509 5513 5515 5518 5521 5525 5528 5532 5536 5541 5545 5550 5554 5559 5564 5568 5573 5578 5582 5587 5591 5596 5600 5605 5609 5613 5617 5621 5624 5628 5631 5634
5495 5493 5492 5492 5493 5493 5497 5495 5496 5497 5499 5501 5504 5507 5509 5512 5515 5518 5521 5525 5529 5533 5537 5542 5546 5550 5555 5559 5563 5568 5572 5576 5581 5585 5589 5593 5597 5601 5605 5609 5613 5616 5620 5623
5492 5490 5489 5488 5488 5488 5491 5490 5491 5492 5494 5496 5498 5501 5503 5505 5509 5512 5514 5518 5521 5525 5529 5533 5537 5541 5545 5550 5554 5558 5562 5566 5570 5573 5577 5581 5585 5589 5593 5597 5601 5605 5608 5612
5489 5487 5486 5485 5484 5485 5487 5486 5486 5488 5489 5491 5492 5495 5497 5499 5503 5506 5508 5511 5514 5517 5521 5524 5528 5532 5536 5540 5544 5548 5552 5555 5559 5562 5566 5570 5574 5578 5581 5585 5589 5592 5596 5599
5487 5485 5483 5481 5480 5481 5482 5482 5483 5485 5486 5486 5487 5489 5491 5493 5496 5499 5501 5504 5507 5509 5513 5516 5520 5523 5527 5530 5534 5538 5542 5545 5548 5552 5555 5559 5562 5566 5569 5573 5576 5580 5583 5587
5484 5482 5480 5478 5477 5480 5478 5478 5479 5480 5480 5480 5481 5483 5485 5487 5489 5492 5494 5497 5499 5502 5505 5508 5511 5514 5517 5521 5524 5528 5531 5535 5538 5542 5545 5548 5551 5554 5557 5561 5564 5567 5570 5574
5481 5479 5477 5476 5476 5474 5473 5473 5473 5474 5474 5475 5476 5477 5479 5481 5483 5485 5488 5490 5492 5495 5497 5500 5503 5506 5508 5511 5514 5518 5521 5524 5528 5531 5534 5537 5540 5543 5546 5549 5552 5555 5559 5562
5477 5475 5473 5471 5471 5470 5469 5468 5468 5469 5469 5470 5471 5472 5473 5475 5476 5479 5481 5483 5485 5488 5490 5493 5495 5497 5500 5502 5504 5507 5510 5514 5517 5521 5523 5526 5529 5532 5535 5538 5541 5544 5547 5550
5473 5471 5469 5468 5467 5466 5465 5464 5464 5464 5464 5464 5465 5466 5467 5469 5470 5472 5474 5476 5478 5480 5482 5484 5487 5489 5491 5493 5495 5497 5500 5503 5507 5510 5513 5516 5519 5522 5525 5528 5530 5533 5536 5539
5469 5467 5466 5464 5463 5461 5461 5459 5458 5458 5458 5459 5460 5461 5461 5462 5464 5465 5467 5468 5470 5472 5474 5476 5478 5480 5482 5484 5486 5488 5490 5493 5496 5499 5502 5505 5508 5511 5514 5517 5520 5522 5525 5528